Время (UTC), дата Ветер
(°,м/с) 
Видим.   Явления Облачность Т
(°С)
Тd
(°С)
f(%) Тe
(°С)
Pmin
(гПа)
dP
(гПа)
Po
(мм)
O2
(г/м3)
Тmin Tmax R s Состояние
почвы
00 01.09.13 220 (ЮЗ) 20000 м  слаб. ливневой дождь{гроза}  10/6 600 м кучево-дожд., средняя 
[Cb cap|Ac und]
+14.3 +13.3 94 +23  1012.4  720  273           
03 01.09.13 200 (Ю) 20000 м  в посл. час ливневой дождь{гроза}  10/6 600 м кучево-дожд., средняя 
[Cb calv|Ac und]
+13.6 +12.9 96 +21  1012.9  0.4  720  274  +13.4    12     
06 01.09.13 280 (З) 20000 м  {гроза, ливн. осадки}  10/3 1000 м кучево-дожд., средняя 
[Cb calv|Ac und]
+16.2 +13.5 84 +25  1012.9  0.5  721  271           
09 01.09.13 230 (ЮЗ) 20000 м    10/3 1000 м кучево-дожд., средняя 
[Cb calv|Ac und]
+19 +12.5 66 +26  1012.9  0.4  721  269           
12 01.09.13 250 (З) 20000 м    8/3 1000 м кучево-дожд., средняя 
[Cb calv|Ac trans]
+21.6 +11.5 53 +26  1012.4  721  267           
15 01.09.13 200 (Ю) 20000 м    4/1 1000 м средняя 
[Sc diur, vesp|Ac trans]
+19.3 +13.7 70 +27  1013.5  0.6  721  269    +21.9  0.3     
18 01.09.13 270 (З) 20000 м    4/0 средняя 
[Ac trans]
+15.7 +11.7 77 +20  1016.6  2.3  723  273           
21 01.09.13 280 (З) 20000 м    4/0 средняя 
[Ac trans]
+16.1 +11.3 73 +20  1017.3  0.8  724  273           
00 02.09.13 250 (З) 20000 м    3/0 средняя 
[Ac trans]
+13.4 +11.2 87 +17  1018.4  0.5  724  276           
03 02.09.13 250 (З) 20000 м    3/1 600 м средняя 
[Sc|Ac trans]
+13 +11.7 92 +17  1019.1  0.6  725  276  +11.5        влажная 
06 02.09.13 260 (З) 20000 м    3/3 600 м 
[Cu hum]
+19.4 +10.9 58 +23  1018.5  0.5  725  271           
09 02.09.13 300 (СЗ) 20000 м    6/6 700 м 
[Cu med, cong]
+21.3 +7.5 41 +21  1017.4  -0.7  724  269           
12 02.09.13 310 (СЗ) 20000 м    5/5 600 м 
[Cu hum]
+23.9 +6.4 32 +24  1016  -0.9  724  267           
15 02.09.13 290 (З) 20000 м    1/1 1000 м 
[Cu hum]
+22.5 +5.3 33 +23  1016  -0.3  724  268    +24.5       
18 02.09.13 тихо ()   20000 м    3/0 средняя 
[Ac trans]
+18.2 +6.2 45 +18  1017.3  0.5  724  272           
21 02.09.13 190 (Ю) 20000 м    ясно 
+16 +7.2 56 +17  1016.5  -1.1  723  274           
00 03.09.13 210 (ЮЗ) 20000 м    ясно 
+15.2 +8.5 64 +17  1015.7  -0.9  722  274           
03 03.09.13 250 (З) 20000 м    8/3 600 м средняя, верхняя 
[Sc|Ac trans|Ci fib]
+15.4 +7.8 60 +16  1015.1  -0.5  722  274  +12.8        сухая 
06 03.09.13 130 (ЮВ) 20000 м    8/0 средняя 
[Ac trans]
+22.2 +8.8 42 +23  1013.3  -0.6  722  267           
09 03.09.13 170 (Ю) 20000 м    8/3 600 м средняя 
[Sc|Ac trans]
+24.5 +9.4 38 +26  1012.4  -0.4  721  265           
12 03.09.13 180 (Ю) 20000 м    4/4 600 м 
[Cu hum]
+25.9 +8.4 33 +26  1010.9  -1.2  720  264           
15 03.09.13 210 (ЮЗ) 20000 м    4/4 1000 м 
[Cu hum]
+22.2 +9 43 +23  1010.8  -0.7  720  267    +26.7       
18 03.09.13 240 (ЮЗ) 20000 м    5/3 600 м кучево-дожд., средняя 
[Cb calv|Ac trans]
+19.4 +11.8 61 +25  1012.2  0.9  721  269           
21 03.09.13 300 (СЗ) 20000 м    3/0 средняя 
[Ac trans]
+17.8 +10.2 61 +21  1011.9  -0.6  720  270           
00 04.09.13 330 (СЗ) 20000 м    6/0 средняя 
[Ac trans]
+16.5 +10.9 69 +21  1011.1  -0.9  719  271           
03 04.09.13 140 (ЮВ) 20000 м    4/0 средняя 
[Ac trans]
+14.8 +10.2 74 +17  1010.5  -1  719  273  +14.6        сухая 
06 04.09.13 080 (В) 20000 м    8/1 600 м средняя 
[Cu hum|Ac trans]
+21 +11.3 54 +25  1008.8  -0.5  718  267           
09 04.09.13 110 (В) 20000 м    9/8 900 м кучево-дожд., средняя 
[Cb calv|Ac trans]
+22.2 +10.9 49 +25  1007.1  -1.4  717  265           
12 04.09.13 240 (ЮЗ) 20000 м  в посл. час гроза{ливн. осадки}  8/3 1000 м кучево-дожд., средняя 
[Cb calv|Ac trans]
+22.6 +8.4 40 +23  1006.3  -0.7  717  265           
15 04.09.13 270 (З) 20000 м  в посл. час ливневой дождь  8/5 600 м кучево-дожд., средняя 
[Cb calv|Ac trans]
+16 +11.3 74 +19  1008.7  1.2  718  271    +24.2       
18 04.09.13 270 (З) 5{10}  20000 м  {ливн. осадки}  9/4 600 м кучево-дожд., средняя 
[Cb calv|Ac trans]
+14.3 +9.4 72 +15  1009.6  0.5  718  273           
21 04.09.13 190 (Ю) 20000 м  слаб. ливневой дождь  10/8 800 м кучево-дожд., средняя 
[Cb cap|Ac und]
+11.7 +10.7 94 +15  1009.9  0.1  718  275           
00 05.09.13 210 (ЮЗ) 20000 м  {ливн. осадки}  10/8 900 м кучево-дожд., средняя 
[Cb calv|Ac und]
+11.9 +10.9 94 +15  1008.4  -1.4  717  275           
03 05.09.13 240 (ЮЗ) 20000 м    9/5 600 м кучево-дожд., средняя 
[Cb calv|Ac und]
+11.8 +9.4 85 +12  1008.3  -0.1  717  275  +11.6      влажная 
06 05.09.13 230 (ЮЗ) 7-10{11}  20000 м    8/3 600 м кучево-дожд., средняя 
[Cb calv|Ac trans]
+13.7 +8.5 71 +13  1007.7  -0.2  717  273           
09 05.09.13 240 (ЮЗ) 10-14{14}  20000 м    9/5 300 м кучево-дожд., средняя 
[Cb calv|Ac trans]
+17.4 +7.5 52 +17  1006.9  0.1  716  270           
12 05.09.13 250 (З) 11-17{17}  20000 м    8/6 540 м кучево-дожд., средняя 
[Cb calv|Ac trans]
+17.4 +6.8 50 +17  1007.6  0.1  717  270           
15 05.09.13 250 (З) 7-11{17}  20000 м  {ливн. осадки}  3/1 600 м средняя, верхняя 
[Sc diur, vesp|Ac trans|Ci fib]
+15.1 +7.7 61 +14  1009.2  1.1  718  273    +19.6  0.3     
18 05.09.13 250 (З) 5{14}  20000 м  {ливн. осадки}  3/0 средняя 
[Ac trans]
+12.3 +8.3 77 +11  1011.1  1.3  719  276           
21 05.09.13 240 (ЮЗ) 4{10}  20000 м    4/0 средняя 
[Ac trans]
+11.9 +8.1 78 +11  1011.4  0.3  719  276           
00 06.09.13 240 (ЮЗ) 20000 м    4/0 средняя 
[Ac trans]
+11.9 +7.5 74 +12  1011.2  -0.2  719  276           
03 06.09.13 240 (ЮЗ) 20000 м    9/4 600 м средняя 
[Sc|Ac trans]
+11.5 +8.1 80 +11  1012  0.6  719  277  +11        сухая 
06 06.09.13 240 (ЮЗ) 20000 м    9/5 600 м кучево-дожд., средняя 
[Cb calv|Ac trans]
+14.5 +9.1 70 +15  1012.5  720  274           
09 06.09.13 230 (ЮЗ) 6{12}  20000 м    9/4 600 м кучево-дожд., средняя 
[Cb calv|Ac trans]
+17.2 +7.8 54 +17  1012.5  0.5  720  272           
12 06.09.13 250 (З) 4{11}  20000 м    9/3 600 м кучево-дожд., средняя 
[Cb calv|Ac trans]
+18.2 +7.4 49 +19  1012.3  720  271           
15 06.09.13 300 (СЗ) 20000 м    10/4 600 м кучево-дожд., средняя 
[Cb calv|Ac und]
+15.3 +9.1 66 +16  1013.9  721  274    +19.5       
18 06.09.13 260 (З) 20000 м  слаб. ливневой дождь  10/5 600 м кучево-дожд., средняя 
[Cb cap|Ac und]
+11.9 +10 88 +13  1016.4  1.8  722  277           
21 06.09.13 190 (Ю) 2{10}  20000 м  слаб. ливневой дождь  10/6 930 м кучево-дожд., средняя 
[Cb cap|Ac und]
+11.7 +9.8 88 +14  1016.3  -0.2  722  277           
00 07.09.13 230 (ЮЗ) 20000 м  {ливн. осадки}  5/3 1000 м кучево-дожд., средняя 
[Cb calv|Ac trans]
+10.5 +7.8 83 +10  1016.1  -0.4  722  279           
03 07.09.13 170 (Ю) 20000 м    3/3 1000 м 
[Sc diur, vesp]
+10.2 +7.9 86 +10  1016.7  0.5  722  279  +9.2    0.8    влажная 
06 07.09.13 130 (ЮВ) 20000 м    3/3 600 м 
[Sc]
+17.6 +10.6 64 +20  1015.4  0.1  723  272           
09 07.09.13 200 (Ю) 20000 м    8/5 1000 м кучево-дожд., средняя 
[Cb calv|Ac trans]
+21.3 +6.5 38 +21  1014.1  -0.7  722  269           
12 07.09.13 250 (З) 20000 м    8/4 1000 м кучево-дожд., средняя 
[Cb calv|Ac trans]
+21.3 +6.6 38 +21  1014.1  722  269           
15 07.09.13 230 (ЮЗ) 2{11}  20000 м    8/3 1000 м кучево-дожд., средняя 
[Cb calv|Ac trans]
+16.5 +10.2 66 +19  1015.4  0.5  722  273    +21.9       
18 07.09.13 280 (З) 20000 м    10/6 1000 м кучево-дожд., средняя 
[Cb calv|Ac und]
+13.7 +9.8 77 +16  1018.3  2.2  724  276           
21 07.09.13 260 (З) 6{10}  20000 м  в посл. час ливневой дождь  10/8 800 м кучево-дожд., средняя 
[Cb calv|Ac und]
+12.3 +10.7 90 +14  1017.5  -1  723  277           
00 08.09.13 220 (ЮЗ) 20000 м  в посл. час ливневой дождь  9/5 600 м кучево-дожд., средняя 
[Cb calv|Ac trans]
+12.3 +11.2 93 +17  1017.7  0.2  723  277           
03 08.09.13 130 (ЮВ) 20000 м    9/6 600 м кучево-дожд., средняя 
[Cb calv|Ac trans]
+12.1 +11.2 94 +17  1017.7  723  277  +11.8    0.8    влажная 
06 08.09.13 170 (Ю) 20000 м    10/8 1050 м кучево-дожд., средняя 
[Cb calv|Ac und]
+14 +12.2 89 +20  1017.7  724  275           
09 08.09.13 030 (СВ) 20000 м  в посл. час ливневой дождь  10/8 720 м кучево-дожд., средняя 
[Cb calv|Ac und]
+18 +11.3 65 +23  1016.2  -0.7  723  271           
12 08.09.13 240 (ЮЗ) 20000 м  {ливн. осадки}  10/4 600 м кучево-дожд., средняя 
[Cb calv|Ac und]
+18.4 +10.2 59 +21  1015.8  -0.3  723  271           
15 08.09.13 270 (З) 20000 м  слаб. ливневой дождь  10/8 600 м кучево-дожд., средняя 
[Cb cap|Ac und]
+14.3 +11.8 85 +18  1016.9  0.3  723  275    +19.5  0.3     
18 08.09.13 280 (З) 20000 м  {ливн. осадки}  10/4 600 м кучево-дожд., средняя 
[Cb calv|Ac und]
+14 +9.7 75 +15  1017  0.1  723  275           
21 08.09.13 230 (ЮЗ) 20000 м    9/4 600 м кучево-дожд., средняя 
[Cb calv|Ac trans]
+12.8 +10.4 85 +15  1017.3  0.1  723  276           
00 09.09.13 220 (ЮЗ) 20000 м    10/4 600 м кучево-дожд., средняя 
[Cb calv|Ac und]
+12.8 +11 89 +16  1016.7  -0.6  723  276           
03 09.09.13 260 (З) 10 км  слаб. ливневой дождь  10/8 600 м кучево-дожд., средняя 
[Cb cap|Ac und]
+13 +11.6 91 +17  1016.5  -0.2  723  276  +12.1         
06 09.09.13 270 (З) 10 км  слаб. ливневой дождь  10/6 300 м кучево-дожд., средняя 
[Cb cap|Ac und]
+12.3 +11.1 92 +15  1017.4  0.8  723  277           
09 09.09.13 270 (З) 20000 м  {ливн. осадки}  8/5 300 м кучево-дожд., средняя 
[Cb calv|Ac trans]
+15.3 +10.5 73 +18  1016.6  -0.3  723  274           
12 09.09.13 270 (З) 6{11}  20000 м  {ливн. осадки}  6/6 700 м кучево-дожд. 
[Cb calv]
+17.4 +8.1 54 +17  1016.1  -0.2  723  272           
15 09.09.13 270 (З) 6{11}  20000 м    8/3 600 м кучево-дожд., средняя 
[Cb calv|Ac trans]
+15.2 +9.2 67 +16  1017.4  0.9  724  275    +18.8     
18 09.09.13 270 (З) 20000 м    3/0 средняя 
[Ac trans]
+12.8 +9.6 81 +13  1019.5  1.5  725  277           
21 09.09.13 270 (З) 20000 м    4/3 600 м средняя 
[Sc|Ac trans]
+11.7 +10 89 +13  1019.9  0.2  725  278           
00 10.09.13 260 (З) 10 км    3/0 средняя 
[Ac trans]
+11.1 +9.6 90 +11  1019.7  -0.3  725  279           
03 10.09.13 260 (З) 20000 м    10/6 600 м средняя 
[Sc|Ac und]
+11.5 +9.6 88 +11  1020.1  -0.3  725  279  +10.9        сухая 
06 10.09.13 270 (З) 20000 м    8/8 400 м 
[St]
+14.3 +10.3 77 +16  1020  0.5  725  276           
09 10.09.13 270 (З) 8-12{12}  20000 м    6/6 930 м 
[Cu med, cong]
+18.7 +8.1 50 +19  1018.6  -0.6  725  272           
12 10.09.13 280 (З) 6-10{12}  20000 м    5/5 600 м 
[Cu med, cong]
+19.8 +6.6 42 +20  1017.7  -0.6  724  271           
15 10.09.13 280 (З) 4{10}  20000 м    4/0 средняя 
[Ac trans]
+17.3 +6.8 50 +18  1018.6  0.4  725  273    +20.3       
18 10.09.13 270 (З) 20000 м    4/0 средняя 
[Ac trans]
+14.8 +8.4 65 +15  1019.5  0.4  725  276           
21 10.09.13 260 (З) 20000 м    5/0 средняя 
[Ac trans]
+13.6 +9.4 76 +15  1019.2  -0.4  725  276           
00 11.09.13 280 (З) 20000 м    8/0 средняя 
[Ac trans]
+13.9 +9.5 75 +15  1018.9  -0.3  725  276           
03 11.09.13 260 (З) 20000 м    6/0 средняя 
[Ac trans]
+12.2 +9.4 83 +13  1019.1  725  278  +12        сухая 
06 11.09.13 290 (З) 20000 м    8/3 600 м средняя 
[Sc|Ac trans]
+16.4 +10.1 66 +18  1019.1  0.7  725  274           
09 11.09.13 290 (З) 5-10{11}  20000 м    8/3 600 м верхняя 
[Cu hum|Ci fib]
+19.9 +6.9 43 +20  1018.1  -0.4  725  271           
12 11.09.13 330 (СЗ) 4{10}  20000 м    8/4 600 м кучево-дожд., средняя 
[Cb calv|Ac trans]
+17.9 +9.1 56 +19  1018.4  725  272           
15 11.09.13 320 (СЗ) 20000 м    8/4 1000 м средняя 
[Sc|Ac trans]
+17.7 +9 57 +19  1018.9  0.4  725  273    +21.3       
18 11.09.13 260 (З) 20000 м    9/4 1000 м кучево-дожд., средняя 
[Cb calv|Ac trans]
+13 +8.9 76 +13  1020.6  0.8  726  277           
21 11.09.13 010 (С) 20000 м    3/0 средняя 
[Ac trans]
+13.5 +7.3 66 +14  1020.1  -0.4  725  277           
00 12.09.13 170 (Ю) 20000 м    3/0 средняя 
[Ac trans]
+10.4 +6.1 75 +12  1020.1  -0.6  725  280           
03 12.09.13 040 (СВ) 20000 м    8/0 средняя, верхняя 
[Ac trans|Ci fib]
+10.4 +6.7 78 +12  1020.2  0.1  725  280  +8.4        сухая 
06 12.09.13 080 (В) 20000 м    6/0 средняя, верхняя 
[Ac trans|Ci fib]
+16.4 +8.9 61 +17  1020  0.9  726  274           
09 12.09.13 030 (СВ) 20000 м    8/3 600 м средняя, верхняя 
[Cu hum|Ac trans|Ci fib]
+20.1 +4.6 36 +20  1018.7  -0.6  725  271           
12 12.09.13 080 (В) 20000 м    5/3 600 м верхняя 
[Cu hum|Ci fib]
+22 +4.5 32 +22  1017.5  -0.8  725  269           
15 12.09.13 060 (СВ) 20000 м    3/0 средняя 
[Ac trans]
+18.8 +6.4 44 +19  1018.4  0.3  725  272    +22.1       
18 12.09.13 050 (СВ) 5{10}  20000 м    ясно 
+13.1 +8.5 74 +12  1020.9  1.5  726  278           
21 12.09.13 080 (В) 20000 м    5/0 верхняя 
[Ci fib]
+10.1 +8.1 87 +9  1021.3  -0.2  726  281           
00 13.09.13 120 (ЮВ) 20000 м    ясно 
+9 +7.7 92 +9  1020.8  -0.7  725  281           
03 13.09.13 100 (В) 20000 м    ясно 
+8.7 +7.7 93 +8  1020.5  -0.3  725  282  +8.1        сухая 
06 13.09.13 110 (В) 20000 м    3/0 верхняя 
[Ci fib]
+15.7 +10.3 70 +17  1019.5  0.3  725  274           
09 13.09.13 120 (ЮВ) 6-11{11}  20000 м    5/3 600 м верхняя 
[Cu hum|Ci fib]
+21.7 +10.6 49 +24  1017.7  -0.6  725  269           
12 13.09.13 110 (В) 6-10{11}  20000 м    5/0 верхняя 
[Ci fib]
+23 +9.2 41 +24  1016.7  -0.8  724  267           
18 13.09.13 100 (В) 20000 м    8/3 1000 м средняя 
[Sc|Ac trans]
+16.9 +10.1 64 +19  1018.1  724  273           
21 13.09.13 110 (В) 20000 м    5/0 средняя 
[Ac trans]
+14.4 +9.8 74 +16  1017.7  -0.8  724  275           
00 14.09.13 120 (ЮВ) 20000 м    ясно 
+13.1 +11.4 89 +16  1017.1  -0.8  723  276           
03 14.09.13 120 (ЮВ) 10 км    4/4 300 м 
[St]
+12.5 +11.8 96 +16  1016.3  -0.8  723  276  +12.3        сухая 
06 14.09.13 130 (ЮВ) 7-10{12}  20000 м    4/4 300 м 
[St]
+17.7 +12.6 72 +23  1015.3  -0.1  722  271           
09 14.09.13 130 (ЮВ) 7{12}  20000 м    9/0 средняя, верхняя 
[Ac trans|Ci fib]
+20.1 +11.7 58 +24  1013.8  -1  722  269           
12 14.09.13 120 (ЮВ) 7{11}  20000 м  {ливн. осадки}  9/3 600 м кучево-дожд., средняя 
[Cb calv|Ac trans]
+18.8 +13.8 73 +27  1012.7  -1.2  721  269           
15 14.09.13 110 (В) 6{11}  20000 м  {ливн. осадки}  8/3 600 м кучево-дожд., средняя 
[Cb calv|Ac trans]
+20.5 +13.1 63 +27  1010.9  -1.5  720  267    +21.1  0.0     
18 14.09.13 110 (В) 7-10{12}  20000 м  {ливн. осадки}  4/0 средняя 
[Ac trans]
+18.8 +13.3 70 +26  1009.8  -1.3  719  268           
21 14.09.13 150 (ЮВ) 6{11}  20000 м    6/0 средняя 
[Ac trans]
+17.3 +14.1 81 +25  1010.1  -0.1  719  269           
00 15.09.13 270 (З) 20000 м  гроза, ливневой дождь  5/4 600 м кучево-дожд., средняя 
[Cb cap|Ac trans]
+16.7 +14.1 85 +26  1010.9  0.6  719  270           
03 15.09.13 230 (ЮЗ) 20000 м  {гроза, ливн. осадки}  8/4 600 м кучево-дожд., средняя 
[Cb calv|Ac trans]
+15.4 +13.6 89 +22  1012.2  720  272  +14    0.3    влажная 
06 15.09.13 330 (СЗ) 4000 м  слаб. ливневой дождь{гроза}  10/6 300 м кучево-дожд., средняя 
[Cb cap|Ac und]
+16 +14.5 91 +25  1011.9  -0.2  720  271           
09 15.09.13 040 (СВ) 20000 м  в посл. час ливневой дождь  9/4 600 м кучево-дожд., средняя, верхняя 
[Cb cap|Ac As|Ci fib]
+18.2 +15 82 +29  1010.2  -1.1  719  268           
12 15.09.13 050 (СВ) 20000 м  {ливн. осадки}  10/6 360 м кучево-дожд., средняя 
[Cb calv|Ac und]
+17.8 +14.4 81 +27  1008.8  -1.4  718  269           
15 15.09.13 020 (С) 4000 м  гроза, ливневой дождь  10/8 200 м кучево-дожд., средняя 
[Cb cap|Ac und]
+16.2 +15.5 96 +28  1007.7  -1.3  717  269    +19     
18 15.09.13 230 (ЮЗ) 10 км  гроза, ливневой дождь  10/4 180 м кучево-дожд., средняя 
[Cb cap|Ac und]
+14 +13.5 97 +22  1008.2  0.1  717  272           
21 15.09.13 250 (З) 20000 м  {гроза, ливн. осадки}  4/3 600 м кучево-дожд., средняя 
[Cb cap|Ac trans]
+13.1 +12.5 96 +19  1008.7  0.3  717  273           
00 16.09.13 250 (З) 20000 м  {гроза}  1/0 средняя 
[Ac trans]
+11.8 +9.4 85 +12  1008.9  0.1  717  275           
03 16.09.13 150 (ЮВ) 20000 м    6/0 средняя 
[Ac trans]
+12.2 +10 86 +14  1008.9  0.1  717  275  +11    17    влажная 
06 16.09.13 190 (Ю) 20000 м    8/3 1000 м средняя 
[Sc|Ac trans]
+15.5 +11.8 79 +21  1009.3  718  271           
09 16.09.13 220 (ЮЗ) 7{12}  20000 м  {ливн. осадки}  9/5 600 м кучево-дожд., средняя 
[Cb calv|Ac trans]
+18.2 +11.5 65 +22  1010  1.1  719  269           
12 16.09.13 250 (З) 6{11}  20000 м  слаб. ливневой дождь  8/4 300 м кучево-дожд., средняя 
[Cb cap|Ac trans]
+18.3 +13.2 72 +25  1010.2  0.2  719  269           
15 16.09.13 250 (З) 20000 м  {ливн. осадки}  3/0 средняя 
[Ac trans]
+16 +12.9 82 +23  1011.2  0.6  719  271    +20.7       
18 16.09.13 270 (З) 20000 м  {ливн. осадки}  8/0 средняя 
[Ac trans]
+14.6 +12.7 88 +21  1011.9  0.4  720  273           
21 16.09.13 150 (ЮВ) 20000 м    10/5 600 м средняя 
[Sc|Ac und]
+15.3 +13.2 87 +23  1011.3  -0.4  719  272           
00 17.09.13 080 (В) 20000 м    10/5 600 м средняя 
[Sc|Ac und]
+15.2 +13.2 88 +23  1010.2  -1.1  719  272           
03 17.09.13 070 (В) 20000 м    9/3 600 м средняя 
[Sc|Ac trans]
+14 +13.1 94 +21  1009.6  -0.8  718  272  +13.9        сухая 
06 17.09.13 110 (В) 20000 м    10/4 200 м средняя 
[St|Ac und]
+17 +13.4 79 +24  1008.5  -0.5  718  269           
09 17.09.13 110 (В) 9-12{12}  20000 м    10/6 800 м 
[]
+19.9 +12.5 62 +26  1007.3  -0.6  717  267           
12 17.09.13 110 (В) 7-10{12}  20000 м    10/5 600 м средняя 
[Sc|Ac und]
+20.1 +12.2 60 +25  1006.3  -0.9  716  267           
18 17.09.13 080 (В) 20000 м    10/4 1000 м кучево-дожд., средняя 
[Cb calv|Ac und]
+16.7 +13.6 82 +24  1006.6  -0.3  716  269           
21 17.09.13 200 (Ю) 20000 м    10/3 1000 м кучево-дожд., средняя 
[Cb calv|Ac und]
+15.3 +13.2 87 +23  1006.3  -0.5  716  270           
00 18.09.13 190 (Ю) 20000 м    10/5 1000 м кучево-дожд., средняя 
[Cb calv|Ac und]
+15.5 +12.1 80 +21  1004.8  -1.4  715  270           
03 18.09.13 230 (ЮЗ) 20000 м    10/4 1000 м кучево-дожд., средняя 
[Cb calv|Ac und]
+13.6 +12.6 94 +20  1004.7  -0.4  714  272  +13.6        сухая 
06 18.09.13 330 (СЗ) 20000 м    8/0 средняя 
[Ac trans]
+19.9 +12.3 62 +26  1004  0.4  715  266           
09 18.09.13 010 (С) 20000 м    3/0 средняя 
[Ac trans]
+22.6 +10.4 46 +25  1003.2  -0.3  715  264           
12 18.09.13 010 (С) 20000 м    4/0 средняя, верхняя 
[Ac trans|Ci fib]
+23.9 +7.4 35 +24  1003  0.1  714  263           
15 18.09.13 010 (С) 20000 м  слаб. ливневой дождь  9/5 600 м кучево-дожд., средняя 
[Cb cap|Ac trans]
+20.6 +10.5 52 +23  1004  0.5  715  266    +24.6  0.0     
18 18.09.13 040 (СВ) 20000 м  {ливн. осадки}  6/0 средняя 
[Ac trans]
+18.2 +11.1 63 +23  1005.2  0.7  715  268           
21 18.09.13 тихо ()   20000 м    8/0 средняя 
[Ac trans]
+16.9 +7.8 55 +17  1005.7  0.2  716  270           
00 19.09.13 210 (ЮЗ) 20000 м    3/0 средняя 
[Ac trans]
+13.9 +10.2 78 +17  1005.8  -0.3  715  272           
03 19.09.13 170 (Ю) 20000 м    4/0 средняя 
[Ac trans]
+13.8 +9.8 77 +16  1005.8  715  272  +12.2    0.0    сухая 
06 19.09.13 200 (Ю) 20000 м    9/3 1000 м средняя 
[Sc|Ac trans]
+20.5 +11.2 55 +24  1005.8  1.1  716  266           
09 19.09.13 330 (СЗ) 20000 м    8/3 600 м средняя 
[Cu hum|Ac trans]
+22.1 +11.7 52 +27  1006.2  0.7  717  265           
12 19.09.13 310 (СЗ) 20000 м    9/3 600 м кучево-дожд., средняя 
[Cb calv|Ac trans]
+20.3 +13 63 +27  1006.7  0.2  717  266           
15 19.09.13 330 (СЗ) 20000 м    9/3 1000 м кучево-дожд., средняя 
[Cb calv|Ac trans]
+18.3 +12.1 67 +24  1007.5  0.4  717  268    +23.1       
18 19.09.13 010 (С) 20000 м    8/4 600 м кучево-дожд., средняя 
[Cb calv|Ac trans]
+17.2 +12.6 74 +24  1008.5  0.7  718  269           
21 19.09.13 330 (СЗ) 20000 м    4/0 средняя 
[Ac trans]
+15 +13.2 89 +23  1009.1  0.2  718  271           
00 20.09.13 010 (С) 20000 м    4/0 средняя 
[Ac trans]
+14.5 +12.9 90 +22  1009.5  0.3  718  272           
03 20.09.13 310 (СЗ) 2000 м  дымка  10/5 200 м средняя 
[St|Ac und]
+14 +13.2 95 +22  1010.1  0.5  718  273  +13.1         
06 20.09.13 250 (З) 20000 м  {туман}  8/3 600 м кучево-дожд., средняя 
[Cb calv|Ac trans]
+16.9 +14.7 87 +27  1009.8  0.2  719  269           
09 20.09.13 050 (СВ) 20000 м    9/6 1000 м кучево-дожд., средняя 
[Cb calv|Ac trans]
+19.5 +13.8 70 +29  1009.2  0.1  718  267           
12 20.09.13 070 (В) 1000 м  в посл. час ливневой дождь  8/4 1000 м кучево-дожд., средняя 
[Cb calv|Ac trans]
+21.4 +13.7 61 +29  1008.6  -0.3  718  266           
15 20.09.13 330 (СЗ) 20000 м  гроза, ливневой дождь  10/6 1000 м кучево-дожд., средняя 
[Cb cap|Ac und]
+18.8 +14.4 76 +28  1010.1  719  268    +21.8  0.3     
18 20.09.13 110 (В) 4{10}  10 км  гроза, ливневой дождь  ясно 270 м 
+15 +14.1 94 +23  1012.1  1.2  720  272           
21 20.09.13 240 (ЮЗ) 20000 м  {гроза, ливн. осадки}  10/6 1000 м кучево-дожд., средняя 
[Cb calv|Ac und]
+14 +12.8 92 +20  1011.2  -1  719  273           
00 21.09.13 280 (З) 10 км  {гроза, ливн. осадки}  10/6 330 м кучево-дожд., средняя 
[Cb calv|Ac und]
+15.2 +14 93 +23  1012.6  1.5  720  272           
03 21.09.13 310 (СЗ) 10 км  в посл. час ливневой дождь  9/6 600 м кучево-дожд., средняя 
[Cb calv|Ac trans]
+13.3 +11.8 91 +18  1013.4  0.4  721  275  +13.3       
06 21.09.13 260 (З) 20000 м  {ливн. осадки}  10/8 1020 м средняя 
[Sc diur, vesp|Ac und]
+14.3 +10.7 79 +19  1014.2  721  274  +12.3         
09 21.09.13 310 (СЗ) 20000 м    10/3 1000 м средняя 
[Sc|Ac und]
+17.9 +9.6 58 +20  1013.1  -0.5  721  271           
12 21.09.13 250 (З) 20000 м    10/8 960 м средняя 
[Sc|Ac und]
+19 +10.4 57 +22  1013  0.1  721  270           
15 21.09.13 280 (З) 10 км  слаб. ливневой дождь  10/8 1000 м кучево-дожд., средняя 
[Cb cap|Ac und]
+14.8 +13.2 90 +22  1014.2  0.5  721  273    +19  0.8     
18 21.09.13 280 (З) 10 км  слаб. ливневой дождь  10/8 300 м кучево-дожд., средняя 
[Cb cap|Ac und]
+13.4 +12.5 94 +20  1014.7  0.2  722  275           
21 21.09.13 200 (Ю) 20000 м  слаб. ливневой дождь  10/8 720 м кучево-дожд., средняя 
[Cb cap|Ac und]
+11.6 +10.8 95 +16  1014.5  -0.5  721  277           
00 22.09.13 290 (З) 20000 м  {ливн. осадки}  10/6 1300 м средняя 
[Sc|Ac und]
+12.7 +11.1 90 +17  1014  -0.3  721  275           
03 22.09.13 240 (ЮЗ) 20000 м    10/6 1000 м средняя 
[Sc|Ac und]
+12 +9.4 84 +14  1013.8  -0.3  721  276  +11.6      влажная 
06 22.09.13 190 (Ю) 20000 м  слаб. ливневой дождь  10/4 1000 м кучево-дожд., средняя 
[Cb cap|Ac As]
+12.3 +10.9 91 +15  1014.3  0.5  721  276           
09 22.09.13 150 (ЮВ) 20000 м  {ливн. осадки}  10/3 1000 м кучево-дожд., средняя 
[Cb calv|Ac As]
+14.7 +9.5 71 +16  1013.1  -0.7  721  274           
12 22.09.13 160 (Ю) 20000 м  {ливн. осадки}  9/4 1000 м кучево-дожд., средняя 
[Cb calv|Ac trans]
+16.4 +9.7 65 +19  1012.3  -0.4  720  272           
15 22.09.13 190 (Ю) 20000 м    6/3 1000 м кучево-дожд., средняя 
[Cb calv|Ac trans]
+13.2 +9.5 78 +14  1012.8  0.1  720  275    +16.9  0.3     
18 22.09.13 220 (ЮЗ) 20000 м    4/0 средняя 
[Ac trans]
+12 +9.1 82 +13  1013.3  0.1  720  276           
21 22.09.13 250 (З) 20000 м    3/0 средняя 
[Ac trans]
+10.6 +8.8 89 +10  1013  -0.6  720  278           
00 23.09.13 230 (ЮЗ) 20000 м    1/0 средняя 
[Ac trans]
+8.2 +6.7 90 +8  1012.7  -0.7  719  280           
03 23.09.13 240 (ЮЗ) 20000 м    6/1 600 м кучево-дожд., средняя 
[Cb calv|Ac trans]
+8.7 +7.6 93 +8  1011.6  -0.8  719  279  +8.2        влажная 
06 23.09.13 240 (ЮЗ) 20000 м    6/4 300 м кучево-дожд., верхняя 
[Cb calv|Ci fib]
+14.4 +8.4 67 +14  1010.1  -0.4  718  273           
09 23.09.13 250 (З) 7-10{11}  20000 м    6/6 480 м кучево-дожд. 
[Cb calv]
+14.4 +8.4 67 +13  1010.1  -1.8  717  273           
12 23.09.13 260 (З) 6-10{12}  20000 м    6/6 750 м кучево-дожд. 
[Cb calv]
+18.6 +6.5 45 +19  1006.1  -1.3  716  269           
15 23.09.13 240 (ЮЗ) 5{11}  20000 м    8/4 600 м кучево-дожд., средняя 
[Cb calv|Ac trans]
+14.9 +6.8 58 +14  1006.4  -0.3  716  272    +19       
18 23.09.13 230 (ЮЗ) 20000 м    6/3 1000 м средняя 
[Sc diur, vesp|Ac trans]
+11.8 +8.1 78 +11  1006.2  -0.8  715  275           
21 23.09.13 240 (ЮЗ) 20000 м    10/0 средняя 
[Ac und]
+11.7 +7.4 75 +11  1004.3  -1.8  714  274           
00 24.09.13 210 (ЮЗ) 4{14}  20000 м  в посл. час ливневой дождь  10/5 1000 м кучево-дожд., средняя 
[Cb calv|Ac und]
+11 +8.7 86 +10  1003.6  -0.8  713  275           
03 24.09.13 220 (ЮЗ) 20000 м    9/3 600 м кучево-дожд., средняя 
[Cb calv|Ac As]
+10.8 +8.3 85 +10  1001.9  -1.7  712  274  +10.7    0.3    влажная 
06 24.09.13 240 (ЮЗ) 20000 м    10/3 600 м средняя 
[Sc|Ac und]
+13.7 +8.3 70 +13  1001.1  -0.2  712  272           
09 24.09.13 250 (З) 7-10  4000 м  дождь  10/10 1500 м 
[Ns]
+11.3 +9.1 86 +11  1001.7  0.1  712  274           
12 24.09.13 280 (З) 8-11  10 км  дождь  10/10 300 м 
[Frnb]
+9.5 +7.4 87 +7  1002.8  0.7  712  276           
15 24.09.13 230 (ЮЗ) 20000 м  в посл. час дождь  10/10 2000 м 
[Ns]
+9.1 +7.1 87 +8  1003.1  0.2  713  277    +13.9  14     
18 24.09.13 210 (ЮЗ) 20000 м  слаб. ливневой дождь  10/8 1000 м кучево-дожд., средняя 
[Cb cap|Ac und]
+9.1 +7.8 92 +9  1003.7  0.6  713  277           
21 24.09.13 240 (ЮЗ) 5-10{10}  20000 м  слаб. ливневой дождь  10/3 1000 м кучево-дожд., средняя 
[Cb cap|Ac und]
+9.5 +7.6 88 +8  1003.7  713  276           
00 25.09.13 250 (З) 8-13{16}  20000 м  {ливн. осадки}  8/4 600 м кучево-дожд., средняя 
[Cb calv|Ac und]
+8.8 +6.4 85 +6  1004.2  0.4  713  277           
03 25.09.13 250 (З) 20000 м    5/3 600 м кучево-дожд., средняя 
[Cb calv|Ac trans]
+8 +5.1 82 +5  1005.4  0.4  714  279  +8      влажная 
06 25.09.13 260 (З) 11-18{18}  20000 м    6/3 600 м средняя 
[Sc|Ac trans]
+12 +4.2 59 +10  1006.3  1.5  715  275  +8         
09 25.09.13 260 (З) 12-21{21}  20000 м    6/3 600 м средняя 
[Cu hum|Ac trans]
+15.6 +4 46 +14  1005.6  715  272           
12 25.09.13 290 (З) 7-10{24}  20000 м  слаб. ливневой дождь  9/5 1000 м кучево-дожд., средняя 
[Cb cap|Ac trans]
+10.2 +6.7 79 +8  1006.7  0.1  715  277           
15 25.09.13 300 (СЗ) 10 км  слаб. ливневой дождь  10/6 1000 м кучево-дожд., средняя 
[Cb cap|Ac und]
+7.1 +6 93 +5  1007.2  715  280    +16     
18 25.09.13 230 (ЮЗ) 5{14}  20000 м  в посл. час ливневой дождь  10/8 870 м кучево-дожд., средняя 
[Cb calv|Ac und]
+5.2 +4 92 +3  1013.2  5.3  719  284           
21 25.09.13 240 (ЮЗ) 7{13}  20000 м    9/5 600 м кучево-дожд., средняя 
[Cb calv|Ac trans]
+7.1 +5.6 90 +5  1014.5  1.6  720  282           
00 26.09.13 250 (З) 6{11}  20000 м    5/3 600 м средняя 
[Sc diur, vesp|Ac trans]
+7.1 +5 87 +5  1015.3  0.7  721  282           
03 26.09.13 240 (ЮЗ) 20000 м    10/8 300 м кучево-дожд., средняя 
[Cb calv|Ac und]
+7.8 +6.1 89 +7  1016.6  1.4  722  282  +4.8    15    влажная 
06 26.09.13 270 (З) 6{11}  20000 м  в посл. час ливневой дождь  8/5 100 м кучево-дожд., средняя 
[Cb calv|Ac trans]
+10.1 +7.7 85 +9  1017.8  1.6  723  280           
09 26.09.13 280 (З) 7-12{13}  20000 м    8/8 720 м кучево-дожд. 
[Cb calv]
+11.6 +6.4 70 +10  1018.4  0.8  724  279           
12 26.09.13 270 (З) 6-11{12}  20000 м  {ливн. осадки}  8/5 600 м кучево-дожд., средняя, верхняя 
[Cb calv|Ac trans|Ci fib]
+13.9 +6 59 +13  1017.8  -0.2  724  276           
15 26.09.13 260 (З) 20000 м    9/9 660 м кучево-дожд. 
[Cb calv]
+11.6 +6.8 72 +12  1017.9  -0.3  723  278    +14.6  0.3     
18 26.09.13 220 (ЮЗ) 20000 м    3/0 средняя 
[Ac trans]
+8.6 +6.1 84 +9  1018  -0.5  723  281           
21 26.09.13 150 (ЮВ) 20000 м    3/0 средняя 
[Ac trans]
+8.8 +7 89 +8  1015.7  -2.1  722  280           
00 27.09.13 110 (В) 20000 м    5/0 средняя 
[Ac trans]
+9.1 +5.9 80 +8  1013.2  -2.4  720  280           
03 27.09.13 140 (ЮВ) 20000 м    8/0 средняя, верхняя 
[Ac trans|Ci fib]
+8.9 +4.5 74 +7  1010.5  -2.5  718  279  +7.9        влажная 
06 27.09.13 130 (ЮВ) 20000 м    9/3 600 м средняя 
[Sc|Ac trans]
+13.3 +5 57 +13  1007.7  -1.8  716  274           
09 27.09.13 230 (ЮЗ) 7-11{11}  20000 м    8/0 верхняя 
[Ci]
+24.2 +3.5 26 +24  1004.5  -1.2  716  264           
12 27.09.13 270 (З) 9-14{14}  20000 м    8/3 600 м средняя, верхняя 
[Sc|Ac trans|Ci fib]
+24.3 +5.1 29 +24  1003.7  -0.7  715  264           
15 27.09.13 300 (СЗ) 20000 м    9/5 500 м кучево-дожд., средняя 
[Cb calv|Ac trans]
+16.3 +12.8 80 +22  1006.4  1.3  716  270    +25.3       
18 27.09.13 290 (З) 9-12{15}  20000 м    10/6 720 м кучево-дожд., средняя 
[Cb calv|Ac trans]
+10.4 +7.8 84 +8  1010.7  1.3  718  277           
21 27.09.13 300 (СЗ) 4{12}  20000 м  слаб. ливневой дождь  10/8 300 м кучево-дожд., средняя 
[Cb cap|Ac und]
+6.6 +5.1 90 +5  1014.9  3.3  721  283           
00 28.09.13 270 (З) 20000 м  слаб. ливневой дождь  10/8 500 м кучево-дожд., средняя 
[Cb cap|Ac As]
+4.8 +2.4 84 +4  1016.3  0.9  721  285           
03 28.09.13 240 (ЮЗ) 20000 м  {ливн. осадки}  9/6 300 м средняя 
[Sc diur, vesp|Ac trans]
+3.5 +1.5 87 +4  1017.2  0.6  722  287  +3.5       
06 28.09.13 120 (ЮВ) 20000 м  {ливн. осадки}  8/4 600 м средняя 
[Sc|Ac trans]
+5 +2.1 81 +5  1017.4  0.5  722  285  +3.2         
09 28.09.13 100 (В) 20000 м    10/4 600 м средняя 
[Sc|Ac und]
+5.4 +3.1 85 +4  1016.2  -1  721  284           
12 28.09.13 120 (ЮВ) 20000 м  {дождь}  10/5 600 м кучево-дожд., средняя 
[Cb calv|Ac und]
+5.7 +3.7 87 +5  1016.4  0.2  722  284           
15 28.09.13 160 (Ю) 20000 м    10/6 1000 м кучево-дожд., средняя 
[Cb cap|Ac und]
+5.6 +4 89 +5  1017  0.5  722  284    +6.4  0.3     
18 28.09.13 180 (Ю) 20000 м    3/1 600 м средняя 
[Sc|Ac trans]
+3.5 +2.7 94 +2  1018.4  0.9  723  287           
21 28.09.13 200 (Ю) 20000 м    ясно 
+3.3 +2.2 92 +2  1018.2  -0.2  722  287           
00 29.09.13 250 (З) 20000 м    3/0 средняя 
[Ac trans]
+3.1 +1.7 90 +2  1018.4  0.1  723  288           
03 29.09.13 260 (З) 20000 м    3/0 средняя 
[Ac trans]
+3 +1.6 90 +2  1018.2  -0.2  722  288  +2        влажная 
06 29.09.13 180 (Ю) 20000 м    10/3 1000 м средняя 
[Sc|Ac und]
+7.6 +3.6 76 +8  1017.1  -0.2  722  283           
09 29.09.13 220 (ЮЗ) 20000 м    9/4 1000 м средняя 
[Sc|Ac trans]
+9.5 +0.6 54 +9  1015.9  -0.8  722  281           
12 29.09.13 230 (ЮЗ) 20000 м  слаб. ливневой дождь  10/8 800 м кучево-дожд., средняя 
[Cb cap|Ac und]
+6.4 +3.4 81 +7  1016  -0.5  721  283           
15 29.09.13 200 (Ю) 10 км  слаб. ливневой дождь  10/8 600 м кучево-дожд., средняя 
[Cb cap|Ac und]
+4.5 +3.9 96 +3  1017  0.6  722  285    +9.6     
18 29.09.13 200 (Ю) 10 км  слаб. ливневой дождь  10/8 800 м кучево-дожд., средняя 
[Cb cap|Ac und]
+3.9 +3.3 96 +2  1017.8  0.6  722  286           
21 29.09.13 240 (ЮЗ) 20000 м  {ливн. осадки}  4/0 средняя 
[Ac trans]
+3.6 +2.2 91 +1  1017.9  722  287           
00 30.09.13 240 (ЮЗ) 20000 м  {ливн. осадки}  3/0 средняя 
[Ac trans]
+3.7 +2.4 91 +2  1017.7  -0.2  722  287           
03 30.09.13 290 (З) 20000 м    10/6 200 м средняя 
[St|Ac und]
+4.7 +3.3 91 +4  1018.1  0.6  723  286  +2.9      влажная 
06 30.09.13 200 (Ю) 20000 м    6/6 300 м 
[Sc diur, vesp]
+6.9 +3.6 79 +8  1018.3  0.6  723  284           
09 30.09.13 350 (С) 20000 м    8/4 600 м верхняя 
[Sc|Ci fib]
+10.5 +2.3 57 +11  1017.2  -0.4  723  280           
12 30.09.13 290 (З) 20000 м    8/3 600 м верхняя 
[Sc|Ci fib]
+11.9 -1.7 39 +11  1016.5  -0.5  722  279           
15 30.09.13 360 (С) 20000 м    6/0 средняя, верхняя 
[Ac trans|Ci fib]
+8.4 +2.4 66 +8  1017.8  0.6  723  282    +12.1       
18 30.09.13 140 (ЮВ) 20000 м    6/0 верхняя 
[Ci fib]
+5.9 +2.5 79 +6  1018.6  0.3  723  285           
21 30.09.13 100 (В) 20000 м    3/0 верхняя 
[Ci fib]
+5 +2.2 82 +6  1018.4  -0.4  723  286           
00 01.10.13 080 (В) 20000 м    ясно 
+4.1 +1.4 83 +5  1018  -0.5  722  287           
03 01.10.13 080 (В) 20000 м    3/0 верхняя 
[Ci fib]
+2.7 +1.1 89 +2  1017.7  -0.6  722  288  +2.6        влажная 
06 01.10.13 100 (В) 10 км    8/0 средняя, верхняя 
[Ac trans|Ci fib]
+6.4 +4.7 89 +5  1016.1  -0.8  721  283  +2.2         
09 01.10.13 110 (В) 20000 м    9/5 300 м средняя 
[Sc|Ac trans]
+11.9 +6.1 68 +11  1013.5  -1.4  720  277           
12 01.10.13 110 (В) 8-10{10}  20000 м    9/4 600 м средняя 
[Sc|Ac trans]
+12.1 +6.5 69 +10  1011.9  -1.5  719  276           
15 01.10.13 080 (В) 6{10}  20000 м    10/0 средняя, верхняя 
[Ac trans|Ci fib]
+10.3 +6.3 76 +9  1010.9  -1.2  718  278    +12.9       
18 01.10.13 080 (В) 7{10}  20000 м    3/0 средняя 
[Ac trans]
+9.2 +5.6 78 +7  1009.7  -1.4  717  279           
21 01.10.13 100 (В) 7-10{11}  20000 м    4/0 средняя 
[Ac trans]
+8 +6 87 +6  1008.5  -1.3  716  279           
00 02.10.13 120 (ЮВ) 7{10}  10 км    9/4 200 м средняя 
[St|Ac trans]
+9 +8.1 94 +7  1006.7  -1.5  715  277           
03 02.10.13 120 (ЮВ) 20000 м    10/10 200 м 
[St]
+9.6 +8.8 95 +10  1005.4  -1.1  714  276  +7.9        влажная 
06 02.10.13 120 (ЮВ) 7-10{10}  10 км    10/10 120 м 
[St]
+11.3 +10.2 93 +12  1004.3  -0.7  714  274           
09 02.10.13 120 (ЮВ) 6{10}  20000 м    10/10 180 м 
[St]
+12.8 +10.7 87 +15  1004.3  0.2  714  273           
Время (UTC), дата Ветер
(°,м/с) 
Видим.   Явления Облачность Т
(°С)
Тd
(°С)
f(%) Тe
(°С)
Pmin
(гПа)
dP
(гПа)
Po
(мм)
O2
(г/м3)
Тmin Tmax R s Состояние
почвы